GW0552 Weather Reports


time (UTC)temp
C
wind
direction
speed
KPH
gust
KPH
rain 1hr
cm
rain 24hr
cm
rain mn
cm
humidity
%
barometer
mb
20260504014912 10 141 1.6 1.6 0.00 0.00 0.00 74 1010.7
20260504014408 10 138 3.2 4.8 0.00 0.00 0.00 74 1010.9
20260504013905 10 137 0.0 0.0 0.00 0.00 0.00 73 1010.8
20260504013403 10 137 0.0 0.0 0.00 0.00 0.00 71 1010.9
20260504012859 10 137 0.0 0.0 0.00 0.00 0.00 71 1010.8
20260504012357 10 137 0.0 0.0 0.00 0.00 0.00 71 1011.0
20260504011854 10 140 1.6 1.6 0.00 0.00 0.00 71 1011.0
20260504011351 10 136 1.6 1.6 0.00 0.00 0.00 72 1011.0
20260504010847 10 151 3.2 3.2 0.00 0.00 0.00 70 1011.0
20260504010342 10 138 1.6 1.6 0.00 0.00 0.00 70 1010.9
20260504005839 10 141 3.2 3.2 0.00 0.00 0.00 69 1011.1
20260504005336 11 140 3.2 3.2 0.00 0.00 0.00 68 1011.0
20260504004833 11 134 1.6 1.6 0.00 0.00 0.00 67 1011.0
20260504004331 11 137 1.6 1.6 0.00 0.00 0.00 66 1011.1
20260504003827 11 133 1.6 1.6 0.00 0.00 0.00 65 1011.0
20260504003324 11 137 1.6 1.6 0.00 0.00 0.00 63 1011.3
20260504002821 11 134 1.6 1.6 0.00 0.00 0.00 61 1011.0
20260504002318 11 136 1.6 3.2 0.00 0.00 0.00 61 1010.9
20260504001816 12 137 1.6 1.6 0.00 0.00 0.00 59 1010.9
20260504001313 12 136 1.6 3.2 0.00 0.00 0.00 59 1011.1
20260504000809 12 136 1.6 1.6 0.00 0.00 0.00 60 1011.0
20260504000306 12 135 0.0 0.0 0.00 0.00 0.00 57 1011.1
20260503235804 13 127 0.0 0.0 0.00 0.00 0.00 55 1011.2
20260503235304 13 136 0.0 0.0 0.00 0.00 0.00 50 1011.1
20260503234759 13 137 1.6 1.6 0.00 0.00 0.00 49 1010.6
20260503234257 14 133 0.0 0.0 0.00 0.00 0.00 48 1010.9
20260503233754 15 133 0.0 0.0 0.00 0.00 0.00 45 1010.9
20260503233249 15 134 0.0 1.6 0.00 0.00 0.00 47 1010.7
20260503232747 15 127 0.0 1.6 0.00 0.00 0.00 45 1010.9
20260503232244 15 131 1.6 1.6 0.00 0.00 0.00 45 1011.2
20260503231742 15 118 3.2 3.2 0.00 0.00 0.00 38 1011.1
20260503231239 16 142 3.2 3.2 0.00 0.00 0.00 40 1011.3
20260503230734 16 140 0.0 0.0 0.00 0.00 0.00 38 1011.3
20260503230232 16 138 0.0 0.0 0.00 0.00 0.00 38 1011.2
20260503225729 16 123 6.4 8.0 0.00 0.00 0.00 37 1011.4
20260503225229 16 158 1.6 8.0 0.00 0.00 0.00 36 1011.6
20260503224726 16 171 3.2 3.2 0.00 0.00 0.00 35 1011.5
20260503224224 16 114 3.2 4.8 0.00 0.00 0.00 37 1011.5
20260503223722 16 139 3.2 8.0 0.00 0.00 0.00 36 1011.6
20260503223219 16 117 4.8 4.8 0.00 0.00 0.00 34 1011.6
20260503222715 16 94 8.0 9.7 0.00 0.00 0.00 35 1011.7
20260503222213 16 140 4.8 4.8 0.00 0.00 0.00 35 1011.8
20260503221712 16 121 4.8 4.8 0.00 0.00 0.00 37 1011.7
20260503221209 16 125 6.4 9.7 0.00 0.00 0.00 36 1011.5
20260503220705 16 119 6.4 12.9 0.00 0.00 0.00 35 1011.5
20260503220202 17 126 6.4 8.0 0.00 0.00 0.00 36 1011.6
20260503215659 17 130 14.5 16.1 0.00 0.00 0.00 35 1011.6
20260503215155 17 132 0.0 1.6 0.00 0.00 0.00 35 1011.6
20260503214654 17 121 1.6 1.6 0.00 0.00 0.00 35 1011.6
20260503214149 17 115 4.8 4.8 0.00 0.00 0.00 35 1011.7
20260503213644 17 133 4.8 8.0 0.00 0.00 0.00 34 1011.4
20260503213140 17 163 4.8 8.0 0.00 0.00 0.00 36 1011.8
20260503212637 17 129 6.4 8.0 0.00 0.00 0.00 35 1012.1
20260503212135 17 95 6.4 8.0 0.00 0.00 0.00 38 1012.0
20260503211632 17 162 4.8 8.0 0.00 0.00 0.00 36 1011.9
20260503211127 17 168 4.8 8.0 0.00 0.00 0.00 39 1011.8
20260503210624 17 141 8.0 16.1 0.00 0.00 0.00 37 1012.1
20260503210120 17 131 6.4 8.0 0.00 0.00 0.00 35 1012.1
20260503205616 17 150 6.4 8.0 0.00 0.00 0.00 36 1011.9
20260503205113 18 154 0.0 1.6 0.00 0.00 0.00 36 1011.9
20260503204610 17 150 1.6 1.6 0.00 0.00 0.00 35 1012.3
20260503204107 17 109 3.2 3.2 0.00 0.00 0.00 35 1012.3
20260503203604 17 134 1.6 3.2 0.00 0.00 0.00 35 1012.2
20260503203101 17 155 3.2 3.2 0.00 0.00 0.00 34 1012.5
20260503202559 17 130 4.8 8.0 0.00 0.00 0.00 36 1012.2
20260503202057 17 105 8.0 9.7 0.00 0.00 0.00 35 1012.6
20260503201555 16 121 6.4 8.0 0.00 0.00 0.00 35 1012.8
20260503201052 17 138 8.0 9.7 0.00 0.00 0.00 35 1012.8
20260503200548 16 141 1.6 1.6 0.00 0.00 0.00 37 1012.9
20260503200044 16 132 6.4 9.7 0.00 0.00 0.00 40 1012.9
20260503195541 17 130 8.0 9.7 0.00 0.00 0.00 36 1012.9
20260503195038 16 130 0.0 0.0 0.00 0.00 0.00 37 1012.9
20260503194536 16 135 3.2 4.8 0.00 0.00 0.00 35 1013.1
20260503194035 17 136 4.8 4.8 0.00 0.00 0.00 35 1013.2
20260503193532 17 159 4.8 8.0 0.00 0.00 0.00 40 1013.2
20260503193027 16 130 1.6 1.6 0.00 0.00 0.00 37 1013.5
20260503192524 16 251 3.2 4.8 0.00 0.00 0.00 41 1013.6
20260503192020 16 126 0.0 1.6 0.00 0.00 0.00 36 1013.5
20260503191517 16 156 6.4 11.3 0.00 0.00 0.00 40 1013.5
20260503191014 17 143 6.4 8.0 0.00 0.00 0.00 39 1013.7
20260503190510 16 124 4.8 4.8 0.00 0.00 0.00 37 1013.9
20260503190008 15 67 0.0 0.0 0.00 0.00 0.00 41 1014.0
20260503185503 15 148 3.2 3.2 0.00 0.00 0.00 41 1014.0
20260503184958 15 124 0.0 1.6 0.00 0.00 0.00 37 1014.1
20260503184454 15 232 4.8 8.0 0.00 0.00 0.00 38 1014.1
20260503183951 15 120 3.2 3.2 0.00 0.00 0.00 38 1014.2
20260503183448 15 122 0.0 0.0 0.00 0.00 0.00 41 1014.3
20260503182944 15 140 0.0 1.6 0.00 0.00 0.00 38 1014.6
20260503182443 15 105 3.2 4.8 0.00 0.00 0.00 43 1014.6
20260503181940 16 355 9.7 14.5 0.00 0.00 0.00 37 1014.7
20260503181437 15 126 1.6 1.6 0.00 0.00 0.00 43 1015.0
20260503180933 15 34 4.8 8.0 0.00 0.00 0.00 43 1014.9
20260503180432 15 137 9.7 11.3 0.00 0.00 0.00 43 1015.0
20260503175928 15 148 1.6 1.6 0.00 0.00 0.00 42 1015.0
20260503175427 15 150 1.6 1.6 0.00 0.00 0.00 40 1015.0
20260503174922 14 136 3.2 4.8 0.00 0.00 0.00 44 1015.2
20260503174421 14 118 3.2 3.2 0.00 0.00 0.00 40 1015.2
20260503173920 14 324 6.4 12.9 0.00 0.00 0.00 45 1015.5
20260503173417 15 134 6.4 8.0 0.00 0.00 0.00 43 1015.3
20260503172914 13 122 0.0 1.6 0.00 0.00 0.00 45 1015.4
20260503172411 13 149 4.8 8.0 0.00 0.00 0.00 42 1015.7
20260503171907 14 131 1.6 1.6 0.00 0.00 0.00 45 1015.7
20260503171404 14 133 8.0 9.7 0.00 0.00 0.00 46 1015.7
20260503170902 14 353 9.7 11.3 0.00 0.00 0.00 41 1015.5
20260503170358 13 201 6.4 9.7 0.00 0.00 0.00 41 1015.8
20260503150750 12 96 4.8 8.0 0.00 0.00 0.00 46 1017.1
20260503150246 11 208 0.0 1.6 0.00 0.00 0.00 46 1017.2
20260503140211 10 145 0.0 0.0 0.00 0.00 0.00 63 1017.3
20260503131140 6 97 8.0 9.7 0.00 0.00 0.00 75 1017.4
20260503130638 5 103 3.2 4.8 0.00 0.00 0.00 79 1017.2
20260503130135 5 61 4.8 8.0 0.00 0.00 0.00 82 1017.1
20260503110527 -2 132 0.0 0.0 0.00 0.00 0.00 99 1016.0
20260503090414 -1 132 0.0 0.0 0.00 0.00 0.00 99 1015.2
20260503081341 -1 132 0.0 1.6 0.00 0.00 0.00 99 1015.1
20260503080837 -1 132 1.6 3.2 0.00 0.00 0.00 99 1015.1
20260503080335 -1 133 1.6 1.6 0.00 0.00 0.00 99 1014.9
20260503072811 0 134 1.6 1.6 0.00 0.00 0.00 99 1014.8
20260503072308 0 133 1.6 1.6 0.00 0.00 0.00 99 1014.8
20260503071804 0 132 1.6 1.6 0.00 0.00 0.00 99 1014.6
20260503071302 0 132 0.0 0.0 0.00 0.00 0.00 99 1014.5
20260503070757 0 134 0.0 1.6 0.00 0.00 0.00 99 1014.7
20260503070256 0 134 1.6 1.6 0.00 0.00 0.00 99 1014.7
20260503060221 0 131 0.0 0.0 0.00 0.00 0.00 97 1014.7
20260503054708 0 134 1.6 1.6 0.00 0.00 0.00 97 1014.9
20260503054205 0 133 1.6 1.6 0.00 0.00 0.00 97 1014.6
20260503053703 0 134 0.0 0.0 0.00 0.00 0.00 96 1014.5
20260503053201 1 129 0.0 0.0 0.00 0.00 0.00 96 1014.7
20260503052657 1 129 0.0 0.0 0.00 0.00 0.00 95 1014.6
20260503052154 1 129 0.0 0.0 0.00 0.00 0.00 94 1014.5
20260503051649 1 129 0.0 0.0 0.00 0.00 0.00 94 1014.8
20260503051147 1 129 0.0 0.0 0.00 0.00 0.00 94 1014.8
20260503050643 1 129 0.0 0.0 0.00 0.00 0.00 94 1014.5
20260503050140 1 129 0.0 0.0 0.00 0.00 0.00 94 1014.5
20260503045637 1 129 0.0 0.0 0.00 0.00 0.00 95 1014.6
20260503045135 1 129 0.0 0.0 0.00 0.00 0.00 94 1014.7
20260503044631 1 129 0.0 0.0 0.00 0.00 0.00 94 1014.7
20260503044129 1 129 0.0 0.0 0.00 0.00 0.00 94 1014.5
20260503043625 1 129 0.0 0.0 0.00 0.00 0.00 93 1014.4
20260503043122 2 129 0.0 0.0 0.00 0.00 0.00 93 1014.3
20260503042619 2 129 0.0 0.0 0.00 0.00 0.00 93 1014.4
20260503042115 2 129 0.0 0.0 0.00 0.00 0.00 93 1014.4
20260503041612 2 129 0.0 0.0 0.00 0.00 0.00 92 1014.5
20260503041110 2 128 0.0 0.0 0.00 0.00 0.00 92 1014.3
20260503040607 2 128 0.0 0.0 0.00 0.00 0.00 91 1014.5
20260503040104 2 128 0.0 0.0 0.00 0.00 0.00 91 1014.2
20260503035600 2 128 0.0 0.0 0.00 0.00 0.00 90 1014.3
20260503035058 2 128 0.0 0.0 0.00 0.00 0.00 91 1014.3
20260503034555 2 128 0.0 0.0 0.00 0.00 0.00 90 1014.3
20260503034052 2 128 0.0 0.0 0.00 0.00 0.00 90 1014.4
20260503033549 2 128 0.0 0.0 0.00 0.00 0.00 89 1014.2
20260503033047 2 128 0.0 0.0 0.00 0.00 0.00 88 1014.3
20260503032545 3 128 0.0 0.0 0.00 0.00 0.00 88 1014.2
20260503032043 3 128 0.0 0.0 0.00 0.00 0.00 88 1014.2
20260503031540 3 128 0.0 0.0 0.00 0.00 0.00 87 1014.0
20260503031038 3 128 0.0 0.0 0.00 0.00 0.00 86 1014.2
20260503030533 3 128 0.0 0.0 0.00 0.00 0.00 86 1014.3
20260503030031 3 128 0.0 0.0 0.00 0.00 0.00 86 1014.4
20260503025527 3 126 0.0 0.0 0.00 0.00 0.00 86 1014.0
20260503025026 3 127 0.0 0.0 0.00 0.00 0.00 86 1014.0
20260503024521 3 128 0.0 0.0 0.00 0.00 0.00 85 1014.0
20260503024019 3 127 0.0 0.0 0.00 0.00 0.00 84 1014.2
20260503023515 4 129 0.0 0.0 0.00 0.00 0.00 85 1013.9
20260503023013 4 129 0.0 0.0 0.00 0.00 0.00 83 1013.8
20260503022508 4 129 0.0 0.0 0.00 0.00 0.00 82 1014.0
20260503022003 4 129 0.0 0.0 0.00 0.00 0.00 82 1013.9
20260503021500 5 129 0.0 0.0 0.00 0.00 0.00 82 1013.7
20260503020957 5 129 0.0 0.0 0.00 0.00 0.00 81 1013.9
20260503020455 5 127 0.0 0.0 0.00 0.00 0.00 80 1013.7
20260503015951 5 127 0.0 0.0 0.00 0.00 0.00 78 1013.5
20260503015448 5 127 0.0 0.0 0.00 0.00 0.00 78 1013.6